Greenville, MS

2:33 PM CDT on April 26, 2017 (GMT -0500)
Mid Delta Regional

Weather History for KGLH - August, 2014

Change the Weather History Date:

Saturday, August 16, 2014

  Actual Average Record
Temperature  
Mean Temperature 79 °F 82 °F  
Max Temperature 93 °F 92 °F 102 °F (1954)
Min Temperature 64 °F 71 °F 55 °F (2004)
Degree Days  
Heating Degree Days 0 0  
Month to date heating degree days 0 0  
Since 1 June heating degree days 0 0  
Since 1 July heating degree days 0 0  
Cooling Degree Days 14 17  
Month to date cooling degree days 229 272  
Year to date cooling degree days 1408 1541  
Since 1 June cooling degree days 1093 1219  
Growing Degree Days 28 (Base 50)    
Moisture  
Dew Point 69 °F    
Average Humidity 72    
Maximum Humidity 94    
Minimum Humidity 49    
Precipitation  
Precipitation 0.00 in 0.07 in 2.59 in (1921)
Month to date precipitation 2.21 1.03  
Year to date precipitation 38.03 33.13  
Sea Level Pressure  
Sea Level Pressure 29.98 in    
Wind  
Wind Speed 5 mph (SSW)    
Max Wind Speed 10 mph    
Max Gust Speed -    
Visibility 8 miles    
Events      
T = Trace of Precipitation, MM = Missing Value Source: NWS Daily Summary

Daily Weather History Graph

Daily Weather History Graph

Search for Another Location

Airport or City:

Trip Planner

Search our weather history database for the weather conditions in past years. The results will help you decide how hot, cold, wet, or windy it might be!

Date:

Astronomy

Aug. 16, 2014 Rise Set
Actual Time 6:27 AM CDT 7:48 PM CDT
Civil Twilight 6:00 AM CDT 8:14 PM CDT
Nautical Twilight 5:29 AM CDT 8:46 PM CDT
Astronomical Twilight 4:56 AM CDT 9:18 PM CDT
Moon 11:54 PM CDT (8/16) 12:51 PM CDT (8/16)
Length of Visible Light 14h 14m
Length of Day
13h 21m
Waning Gibbous, 58% of the Moon is Illuminated
Aug 16
Waning Gibbous
Aug 17
Last Quarter
Aug 25
New
Sep 2
First Quarter
Sep 8
Full

Hourly Weather History & Observations

Time (CDT) Temp. Heat Index Dew Point Humidity Pressure Visibility Wind Dir Wind Speed Gust Speed Precip Events Conditions
12:53 AM 68.0 °F - 64.9 °F 90% 29.99 in 9.0 mi Calm Calm - N/A   Clear
1:53 AM 66.9 °F - 64.9 °F 93% 29.98 in 8.0 mi Calm Calm - N/A   Clear
2:53 AM 66.9 °F - 64.9 °F 93% 29.98 in 8.0 mi Calm Calm - N/A   Clear
3:53 AM 66.9 °F - 64.9 °F 93% 29.99 in 8.0 mi Calm Calm - N/A   Clear
4:53 AM 66.0 °F - 64.0 °F 93% 29.99 in 7.0 mi South 3.5 mph - N/A   Clear
5:53 AM 66.0 °F - 64.0 °F 93% 30.00 in 6.0 mi Calm Calm - N/A   Clear
6:53 AM 66.0 °F - 64.0 °F 93% 30.01 in 5.0 mi Calm Calm - N/A   Clear
7:53 AM 71.1 °F - 68.0 °F 90% 30.02 in 7.0 mi Calm Calm - N/A   Partly Cloudy
8:53 AM 75.9 °F - 70.0 °F 82% 30.03 in 8.0 mi Calm Calm - N/A   Scattered Clouds
9:53 AM 81.0 °F 84.4 °F 70.0 °F 69% 30.02 in 9.0 mi South 8.1 mph - N/A   Scattered Clouds
10:53 AM 84.0 °F 88.4 °F 70.0 °F 63% 30.03 in 9.0 mi South 6.9 mph - N/A   Clear
11:53 AM 87.1 °F 93.6 °F 72.0 °F 61% 30.03 in 9.0 mi West 10.4 mph - N/A   Clear
12:53 PM 89.1 °F 97.0 °F 73.0 °F 59% 30.02 in 9.0 mi WSW 9.2 mph - N/A   Partly Cloudy
1:53 PM 90.0 °F 96.4 °F 71.1 °F 54% 29.99 in 9.0 mi SW 8.1 mph - N/A   Clear
2:53 PM 90.0 °F 96.4 °F 71.1 °F 54% 29.98 in 9.0 mi SW 10.4 mph - N/A   Scattered Clouds
3:53 PM 91.0 °F 96.6 °F 70.0 °F 50% 29.95 in 9.0 mi WSW 6.9 mph - N/A   Clear
4:53 PM 91.9 °F 98.4 °F 71.1 °F 50% 29.94 in 9.0 mi SW 9.2 mph - N/A   Clear
5:53 PM 89.1 °F 96.0 °F 72.0 °F 57% 29.94 in 9.0 mi South 6.9 mph - N/A   Clear
6:53 PM 86.0 °F 93.8 °F 73.9 °F 67% 29.93 in 9.0 mi SSE 5.8 mph - N/A   Clear
7:53 PM 82.0 °F 86.7 °F 72.0 °F 71% 29.93 in 8.0 mi South 6.9 mph - N/A   Clear
8:53 PM 80.1 °F 84.2 °F 73.0 °F 79% 29.94 in 8.0 mi SSE 6.9 mph - N/A   Clear
9:53 PM 78.1 °F - 73.0 °F 84% 29.97 in 8.0 mi North - - N/A   Clear
10:53 PM 75.9 °F - 73.0 °F 91% 29.96 in 7.0 mi North - - N/A   Clear
11:53 PM 75.9 °F - 73.0 °F 91% 29.95 in 7.0 mi South 5.8 mph - N/A   Clear